Hourly Data Report for October 31, 2016

All times are specified in Local Standard Time (LST). Add 1 hour to adjust for Daylight Saving Time where and when it is observed.

KUGAARUK CLIMATE
NUNAVUT

68°32'15.060" N
89°47'47.020" W
15.80 m
2303094
71407
NBB

Download Data

Hourly Data (October 2016)
Hourly Data Report for October 31, 2016
Temp Definition
°C
Dew Point Temp Definition
°C
Rel Hum Definition
%
Wind Dir Definition
10's deg

Wind Spd Definition
km/h
Visibility Definition
km
Stn Press Definition
kPa
Hmdx Definition


Wind Chill Definition


Weather Definition


TIME
00:00 -7.3 -8.5 91 1 33   100.51   -16 LegendNANA
01:00 -7.5 -8.7 91 1 25   100.52   -16 LegendNANA
02:00 -7.8 -9.3 89 1 18   100.51   -15 LegendNANA
03:00 -8.2 -9.5 90 36 28   100.47   -17 LegendNANA
04:00 -8.3 -9.8 89 5 4   100.51   -10 LegendNANA
05:00 -8.4 -10.4 86 34 11   100.49   -14 LegendNANA
06:00 -9.1 -11.3 84 32 16   100.49   -16 LegendNANA
07:00 -9.4 -11.4 86 35 18   100.46   -17 LegendNANA
08:00 -9.2 -11.0 87 35 8   100.46   -14 LegendNANA
09:00 -10.0 -12.3 84 31 19   100.42   -18 LegendNANA
10:00 -11.2 -13.0 86 28 23   100.41   -20 LegendNANA
11:00 -11.6 -13.7 84 30 23   100.38   -20 LegendNANA
12:00 -11.2 -13.2 85 32 23   100.35   -20 LegendNANA
13:00 -11.2 -13.4 84 31 19   100.35   -19 LegendNANA
14:00 -12.3 -14.2 86 28 21   100.33   -21 LegendNANA
15:00 -12.7 -14.7 85 29 21   100.31   -21 LegendNANA
16:00 -14.7 -17.1 82 27 24   100.29   -25 LegendNANA
17:00 -15.3 -17.9 80 25 22   100.28   -25 LegendNANA
18:00 -16.0 -19.0 78 26 20   100.27   -25 LegendNANA
19:00 -17.5 -20.0 80 24 17   100.23   -27 LegendNANA
20:00 -16.4 -19.0 80 23 23   100.16   -27 LegendNANA
21:00 -15.3 -17.6 83 26 23   100.12   -25 LegendNANA
22:00 -13.7 -16.0 83 26 24   100.09   -23 LegendNANA
23:00 -13.9 -15.9 84 24 24   100.09   -24 LegendNANA

Notes on Data Quality.

Legend

  • E = Estimated
  • M = Missing
  • NA = Not Available
  • ‡ = Partner data that is not subject to review by the National Climate Archives
Date modified: